Location: Unspecified
(0.0000°N, 0.0000°E)
Time: 06:35:40
(UTC+00:00)

Courier 1B Rocket - Pass Details

Date: 19 December 2018
Orbit: 920 x 1202 km, 28.2° (Epoch: 16 June)

Event Time Altitude Azimuth Distance (km) Brightness Sun altitude
Rises 17:20:58 0° 275° (W) 4,053 9.4 8.3°
Reaches altitude 10° 17:24:13 10° 264° (W) 3,113 9.4 7.6°
Maximum altitude 17:30:45 29° 207° (SSW) 2,039 7.5 6.1°
Drops below altitude 10° 17:37:19 10° 150° (SSE) 3,114 7.6 4.6°
Sets 17:40:35 0° 139° (SE) 4,055 8.0 3.8°
